Date,TemperatureHighF,TemperatureAvgF,TemperatureLowF,DewpointHighF,DewpointAvgF,DewpointLowF,HumidityHigh,HumidityAvg,HumidityLow,PressureMaxIn,PressureMinIn,WindSpeedMaxMPH,WindSpeedAvgMPH,GustSpeedMaxMPH,PrecipitationSumIn
2013-4-1,37.8,31.3,25.1,19.7,15.9,13.0,51,40,29,30.21,29.94,7,3,17,0.00
2013-4-2,42.8,32.1,23.8,19.3,16.3,14.0,60,41,24,30.33,30.20,7,3,13,0.00
2013-4-3,48.7,36.3,25.0,24.6,18.6,14.8,54,37,22,30.46,30.31,6,2,9,0.00
2013-4-4,58.9,43.5,30.5,38.2,28.4,20.4,57,45,31,30.31,29.99,10,4,15,0.00
2013-4-5,53.8,42.2,31.6,30.0,26.7,23.1,61,44,27,30.26,30.07,5,2,10,0.00
2013-4-6,60.2,46.5,34.8,48.0,35.0,21.4,80,55,39,30.15,29.60,10,4,22,0.03
2013-4-7,59.3,47.3,37.1,45.9,37.1,31.5,77,60,38,29.98,29.62,7,2,12,0.00
2013-4-8,63.8,47.7,38.4,51.2,41.2,32.2,88,72,53,30.00,29.66,8,2,12,0.63
2013-4-9,46.0,39.7,36.9,41.7,37.0,33.9,87,86,83,30.03,29.90,6,3,13,1.23
2013-4-10,37.0,34.8,32.2,34.4,32.0,29.5,87,86,84,30.09,29.92,7,2,13,0.96
2013-4-11,39.7,37.1,35.1,36.6,34.3,32.5,87,86,83,29.94,29.61,7,3,16,0.36
2013-4-12,42.1,37.0,34.2,35.6,32.3,27.3,86,77,66,29.84,29.58,8,3,16,0.04
2013-4-13,38.9,35.5,32.0,28.2,27.2,25.5,76,63,52,30.01,29.81,11,5,19,0.00
2013-4-14,53.3,40.7,32.6,43.4,34.0,26.0,81,70,56,30.03,29.62,9,3,16,0.14
2013-4-15,59.7,48.2,40.8,48.7,41.7,35.9,89,74,38,30.01,29.62,15,5,24,0.53
2013-4-16,54.6,44.1,33.7,36.4,33.0,28.1,77,57,36,30.31,30.01,5,2,12,0.00
2013-4-17,44.9,41.0,38.5,40.0,35.8,31.9,87,76,58,30.34,29.92,6,2,13,1.08
2013-4-18,57.8,46.4,37.8,56.0,43.4,32.9,92,86,74,29.94,29.40,18,5,27,0.72
2013-4-19,39.7,35.5,31.6,31.9,27.7,22.6,77,65,50,29.94,29.44,15,9,25,0.00
2013-4-20,46.8,36.7,26.8,23.3,20.8,18.7,67,43,23,30.39,29.94,5,1,9,0.00
2013-4-21,54.6,42.8,33.4,38.1,30.2,21.1,62,51,34,30.50,30.27,9,4,18,0.00
2013-4-22,69.1,54.5,42.7,46.0,39.7,34.3,65,49,31,30.29,30.03,9,5,18,0.00
2013-4-23,55.8,44.4,38.0,45.6,36.2,28.4,79,65,51,30.04,29.94,8,3,13,0.00
2013-4-24,55.5,44.0,33.8,30.9,27.4,25.2,61,43,24,30.09,30.01,9,4,15,0.00
2013-4-25,54.4,45.2,37.9,34.2,32.1,28.7,72,52,33,30.30,30.00,10,4,15,0.00
2013-4-26,70.5,54.7,39.9,48.7,38.8,26.8,61,45,34,30.29,30.16,12,6,22,0.00
2013-4-27,67.6,57.2,45.9,50.9,46.3,41.8,82,60,43,30.27,30.06,9,3,12,0.00
2013-4-28,75.0,60.3,46.7,50.6,46.1,40.9,74,53,30,30.05,29.83,7,1,10,0.00
2013-4-29,71.7,61.4,52.9,57.0,52.4,47.3,77,66,49,29.91,29.76,8,4,15,0.02
2013-4-30,87.7,72.5,59.8,61.0,55.9,51.8,84,53,24,29.92,29.71,16,7,27,0.02